Date String (YYYY-MM-DD hh:mm:ss) UTC,Instrument flags,Ambient pressure (hPa),Sample flow (lpm),Bypass flow (lpm),Sample temperature (°C),Ambient temperature (°C),ASC tube jacket temperature (°C),LED temperature (°C),Box temperature (°C),Sample RH (%),Span deviation,Mass concentration (μg/m³),Mass concentration (μg/m³),Mass concentration (μg/m³)
DateTimeUTC,F1_M11,P_M11,Q1_M11,Q2_M11,T1_M11,T2_M11,T3_M11,T4_M11,T5_M11,U1_M11,ZSPAN_M11,X2_M11,X0_M11,X1_M11
2023-05-25 09:00:00,,0829.0,5.00,0.00,29.3,27.6,00.0,37.7,30.9,23.9,0003.5,0007.69,0014.52,0007.08
2023-05-25 09:01:00,,0829.0,5.00,0.00,29.3,27.6,00.0,37.7,30.9,24.0,0003.5,0007.73,0014.67,0007.10
2023-05-25 09:02:00,,0829.0,5.01,0.00,29.3,27.6,00.0,37.7,30.9,24.0,0003.4,0007.79,0014.87,0007.11
2023-05-25 09:03:00,,0829.0,5.01,0.00,29.3,27.5,00.0,37.7,30.9,23.9,0003.4,0007.81,0015.21,0007.10
2023-05-25 09:04:00,,0828.9,5.00,0.00,29.3,27.5,00.0,37.7,30.9,24.1,0003.5,0007.80,0014.95,0007.11
2023-05-25 09:05:00,,0829.0,5.00,0.00,29.3,27.5,00.0,37.7,30.9,24.6,0003.4,0007.87,0015.34,0007.13
2023-05-25 09:06:00,,0829.0,5.00,0.00,29.3,27.5,00.0,37.7,30.9,24.6,0003.5,0007.99,0014.79,0007.17
2023-05-25 09:07:00,,0829.0,5.00,0.00,29.3,27.5,00.0,37.7,30.8,24.5,0003.5,0008.10,0015.41,0007.21
2023-05-25 09:08:00,,0829.0,5.02,0.00,29.3,27.5,00.0,37.7,30.8,24.4,0003.6,0008.19,0016.08,0007.23
2023-05-25 09:09:00,,0829.0,5.01,0.00,29.3,27.5,00.0,37.6,30.8,24.7,0003.6,0008.27,0016.19,0007.30
2023-05-25 09:10:00,,0829.0,5.00,0.00,29.2,27.4,00.0,37.6,30.8,25.0,0003.5,0008.37,0016.40,0007.38
2023-05-25 09:11:00,,0828.9,4.99,0.00,29.2,27.4,00.0,37.6,30.8,25.2,0003.5,0008.45,0016.87,0007.46
2023-05-25 09:12:00,,0829.0,4.99,0.00,29.2,27.5,00.0,37.6,30.8,25.4,0003.5,0008.55,0016.98,0007.56
2023-05-25 09:13:00,,0829.0,5.01,0.00,29.2,27.5,00.0,37.6,30.8,25.6,0003.6,0008.67,0016.99,0007.70
2023-05-25 09:14:00,,0829.0,5.01,0.00,29.2,27.5,00.0,37.6,30.8,25.9,0003.4,0008.80,0016.87,0007.85
2023-05-25 09:15:00,,0829.0,5.00,0.00,29.2,27.5,00.0,37.6,30.8,26.0,0003.4,0009.03,0017.54,0008.04
2023-05-25 09:16:00,,0829.1,4.99,0.00,29.2,27.5,00.0,37.6,30.8,26.2,0003.5,0009.20,0017.67,0008.22
2023-05-25 09:17:00,,0829.1,4.99,0.00,29.2,27.5,00.0,37.6,30.8,26.3,0003.5,0009.39,0017.89,0008.42
2023-05-25 09:18:00,,0829.1,5.01,0.00,29.2,27.4,00.0,37.6,30.8,26.2,0003.4,0009.52,0017.72,0008.58
2023-05-25 09:19:00,,0829.0,5.01,0.00,29.2,27.4,00.0,37.6,30.8,26.3,0003.3,0009.69,0017.46,0008.79
2023-05-25 09:20:00,,0829.1,5.00,0.00,29.2,27.4,00.0,37.6,30.8,26.4,0003.4,0009.85,0017.59,0008.97
2023-05-25 09:21:00,,0829.1,5.00,0.00,29.2,27.4,00.0,37.6,30.8,26.4,0003.3,0009.97,0018.03,0009.11
2023-05-25 09:22:00,,0829.1,5.00,0.00,29.2,27.4,00.0,37.6,30.8,26.6,0003.3,0010.12,0018.27,0009.22
2023-05-25 09:23:00,,0829.0,5.00,0.00,29.2,27.4,00.0,37.6,30.7,26.7,0003.4,0010.27,0019.07,0009.34
2023-05-25 09:24:00,,0829.1,5.00,0.00,29.2,27.4,00.0,37.6,30.8,26.8,0003.2,0010.38,0019.94,0009.42
2023-05-25 09:25:00,,0829.0,5.00,0.00,29.2,27.4,00.0,37.6,30.8,26.9,0003.2,0010.56,0020.66,0009.55
2023-05-25 09:26:00,,0829.0,4.99,0.00,29.2,27.4,00.0,37.6,30.8,27.1,0003.3,0010.69,0020.71,0009.67
2023-05-25 09:27:00,,0829.0,5.00,0.00,29.2,27.4,00.0,37.6,30.7,27.2,0003.2,0010.82,0020.13,0009.79
2023-05-25 09:28:00,,0829.0,5.00,0.00,29.2,27.4,00.0,37.5,30.8,27.4,0002.9,0011.00,0020.69,0009.94
2023-05-25 09:29:00,,0829.1,5.00,0.00,29.2,27.4,00.0,37.5,30.8,27.5,0002.7,0011.14,0021.23,0010.10
2023-05-25 09:30:00,,0829.1,5.00,0.00,29.2,27.4,00.0,37.5,30.7,27.7,0002.8,0011.29,0021.39,0010.27
2023-05-25 09:31:00,,0829.1,5.00,0.00,29.1,27.4,00.0,37.5,30.7,27.7,0002.6,0011.45,0021.98,0010.41
2023-05-25 09:32:00,,0829.1,5.00,0.00,29.1,27.4,00.0,37.5,30.7,27.6,0002.5,0011.57,0022.11,0010.49
2023-05-25 09:33:00,,0829.1,5.00,0.00,29.1,27.4,00.0,37.5,30.7,27.3,0002.5,0011.56,0021.65,0010.50
2023-05-25 09:34:00,,0829.1,4.99,0.00,29.1,27.4,00.0,37.5,30.7,27.1,0002.4,0011.54,0022.67,0010.44
2023-05-25 09:35:00,,0829.1,5.00,0.00,29.1,27.4,00.0,37.5,30.7,26.9,0002.4,0011.51,0022.00,0010.39
2023-05-25 09:36:00,,0829.1,5.00,0.00,29.1,27.4,00.0,37.5,30.7,26.7,0002.4,0011.42,0021.44,0010.26
2023-05-25 09:37:00,,0829.1,5.00,0.00,29.1,27.4,00.0,37.5,30.7,26.5,0002.5,0011.26,0021.50,0010.07
2023-05-25 09:38:00,,0829.1,4.99,0.00,29.1,27.4,00.0,37.5,30.7,26.6,0002.5,0011.19,0023.08,0009.93
2023-05-25 09:39:00,,0829.1,5.00,0.00,29.1,27.4,00.0,37.5,30.7,26.6,0002.6,0011.04,0024.29,0009.77
2023-05-25 09:40:00,,0829.1,5.00,0.00,29.1,27.4,00.0,37.5,30.7,26.6,0002.8,0010.93,0025.04,0009.61
2023-05-25 09:41:00,,0829.1,5.00,0.00,29.1,27.4,00.0,37.5,30.7,26.7,0002.9,0010.91,0025.74,0009.48
2023-05-25 09:42:00,,0829.2,5.00,0.00,29.1,27.4,00.0,37.5,30.7,26.8,0002.8,0010.82,0025.96,0009.37
2023-05-25 09:43:00,,0829.1,5.00,0.00,29.1,27.4,00.0,37.5,30.7,26.9,0002.9,0010.80,0027.14,0009.35
2023-05-25 09:44:00,,0829.2,5.00,0.00,29.1,27.4,00.0,37.5,30.7,27.0,0002.9,0010.91,0028.07,0009.46
2023-05-25 09:45:00,,0829.2,5.00,0.00,29.1,27.4,00.0,37.5,30.7,27.1,0002.9,0011.06,0027.25,0009.64
2023-05-25 09:46:00,,0829.2,5.00,0.00,29.1,27.3,00.0,37.5,30.7,27.3,0002.9,0011.28,0027.74,0009.84
2023-05-25 09:47:00,,0829.2,5.01,0.00,29.1,27.4,00.0,37.5,30.7,27.4,0002.6,0011.53,0028.05,0010.13
2023-05-25 09:48:00,,0829.2,5.00,0.00,29.1,27.4,00.0,37.5,30.7,27.6,0002.4,0011.82,0028.24,0010.45
2023-05-25 09:49:00,,0829.2,5.00,0.00,29.1,27.3,00.0,37.5,30.7,27.7,0002.2,0012.07,0027.27,0010.73
2023-05-25 09:50:00,,0829.2,5.00,0.00,29.1,27.3,00.0,37.5,30.7,27.8,0002.2,0012.33,0025.71,0011.03
2023-05-25 09:51:00,,0829.2,5.00,0.00,29.1,27.3,00.0,37.5,30.7,27.9,0002.1,0012.56,0024.72,0011.29
2023-05-25 09:52:00,,0829.3,5.01,0.00,29.1,27.3,00.0,37.5,30.7,28.0,0001.6,0012.67,0023.82,0011.51
2023-05-25 09:53:00,,0829.3,5.00,0.00,29.1,27.3,00.0,37.4,30.7,28.1,0001.5,0012.82,0023.31,0011.73
2023-05-25 09:54:00,,0829.4,5.00,0.00,29.1,27.3,00.0,37.4,30.7,28.2,0001.6,0012.95,0022.82,0011.89
2023-05-25 09:55:00,,0829.4,5.00,0.00,29.1,27.3,00.0,37.4,30.7,28.2,0001.8,0013.10,0022.55,0012.01
2023-05-25 09:56:00,,0829.4,4.99,0.00,29.0,27.3,00.0,37.4,30.7,28.3,0001.6,0013.26,0022.81,0012.15
2023-05-25 09:57:00,,0829.4,5.00,0.00,29.0,27.3,00.0,37.4,30.6,28.3,0001.5,0013.33,0022.47,0012.26
2023-05-25 09:58:00,,0829.4,5.00,0.00,29.0,27.3,00.0,37.4,30.7,28.3,0001.7,0013.43,0022.34,0012.35
2023-05-25 09:59:00,,0829.4,5.01,0.00,29.0,27.3,00.0,37.4,30.6,28.4,0001.8,0013.51,0022.21,0012.45
